Home > Weather > Chatham-Kent > Past weeks

Flag for Canada Weather for the Past 2 Weeks in Chatham-Kent, Ontario, Canada

Now
46 °F

Cool.


Feels Like: 45 °F
Forecast: 44 / 62 °F
Wind: 3 mph from Northwest

Location: Erieau

Current Time: May 6, 2016 at 7:12:07 AM

Latest Report: May 6, 2016 at 6:00 AM


Visibility: N/A

Pressure: 29.87 "Hg

Humidity: 81%

Dew Point: 40 °F

Location of Chatham-KentLocation

Historic Weather in Chatham-Kent — Graph

°F

Chatham-Kent Temperature Yesterday

Maximum temperature yesterday: 59 °F (at 6:00 PM)
Minimum temperature yesterday: 48 °F (at 6:00 AM)
Average temperature yesterday: 53 °F

High & Low Weather Summary for the Past Weeks

 TemperatureHumidityPressure
High60 °F (Apr 22, 3:00 PM)100% (Apr 22, 3:00 AM)30.19 "Hg (Apr 22, 3:00 AM)
Low36 °F (Apr 23, 6:00 AM)44% (Apr 24, 5:00 PM)29.60 "Hg (May 4, 4:00 PM)
Average46 °F79%29.95 "Hg
* Reported Apr 21 6:00 AM — May 6 6:00 AM, Chatham-Kent, Weather by CustomWeather, © 2016

Note: Actual official high and low records may vary slightly from our data, if they occured in-between our weather recording intervals... More about our weather records

Advertising

Chatham-Kent Weather History for the Previous 24 Hours

Scroll right to see more
 ConditionsComfort  
Time TempWeatherWind HumidityBarometerVisibility
6:00 AM
Fri, May 6
46 °FCool.3 mph81%29.87 "HgN/A
5:00 AM48 °FCool.3 mph72%29.87 "HgN/A
4:00 AM49 °FCool.7 mph68%29.86 "HgN/A
3:00 AM47 °FCool.7 mph75%29.87 "HgN/A
2:00 AM47 °FCool.8 mph75%29.87 "HgN/A
1:00 AM49 °FCool.9 mph65%29.86 "HgN/A
12:00 AM49 °FCool.6 mph71%29.86 "HgN/A
11:00 PM
Thu, May 5
51 °FCool.6 mph70%29.86 "HgN/A
10:00 PM53 °FCool.8 mph65%29.85 "HgN/A
9:00 PM55 °FCool.7 mph61%29.83 "HgN/A
8:00 PM57 °FRefreshingly cool.8 mph60%29.82 "HgN/A
7:00 PM58 °FRefreshingly cool.9 mph56%29.81 "HgN/A
6:00 PM59 °FRefreshingly cool.10 mph55%29.81 "HgN/A
5:00 PM54 °FCool.1 mph69%29.81 "HgN/A
4:00 PM51 °FCool.5 mph75%29.82 "HgN/A
3:00 PM55 °FCool.6 mph69%29.82 "HgN/A
2:00 PM55 °FCool.13 mph69%29.81 "HgN/A
1:00 PM55 °FCool.15 mph68%29.81 "HgN/A
12:00 PM53 °FCool.14 mph75%29.82 "HgN/A
11:00 AM53 °FCool.12 mph73%29.81 "HgN/A
10:00 AM53 °FCool.9 mph73%29.80 "HgN/A
9:00 AM52 °FCool.10 mph75%29.78 "HgN/A
8:00 AM50 °FCool.16 mph79%29.77 "HgN/A
7:00 AM49 °FCool.12 mph79%29.74 "HgN/A
Weather by CustomWeather, © 2016

See weather overviewHow to use our weather pages